Regional Weather Roundup
Issued by NWS Sioux Falls, SD

Home | Current Version | Previous Version | Graphics & Text | Print | Product List | Glossary On
Versions: 1 2 3 4 5 6 7 8 9 10 11 12 13 14 15 16 17 18 19 20 21 22 23 24 25 26 27 28 29 30 31 32 33 34 35 36 37 38 39 40 41 42 43 44 45 46 47 48 49 50
000
ASUS43 KFSD 052302
RWRFSD

WEATHER ROUNDUP FOR SE SOUTH DAKOTA/SW MINNESOTA/NW IOWA
NATIONAL WEATHER SERVICE SIOUX FALLS SD
600 PM CDT TUE MAY 05 2015

NOTE: "FAIR" INDICATES FEW OR NO CLOUDS BELOW 12,000 FEET WITH NO
SIGNIFICANT WEATHER AND OR OBSTRUCTIONS TO VISIBILITY.


SDZ038>040-050-052>070-060000-
SOUTHEAST SOUTH DAKOTA

CITY           SKY/WX    TMP DP  RH WIND       PRES   REMARKS
BROOKINGS      CLOUDY    63  57  82 SE13G20   30.02F
CHAMBERLAIN    NOT AVBL
HURON          CLOUDY    66  56  70 S10G22    29.96S
MADISON        FAIR      66  59  77 S12       30.00S
MITCHELL       CLOUDY    64  60  87 SE10      29.97F
SIOUX FALLS    CLOUDY    68  57  68 SE10      29.99F
WINNER         MOCLDY    63  57  81 SE12      29.93F
YANKTON        CLOUDY    72  61  68 E7        29.94F
$$

MNZ071-072-080-081-089-090-097-098-060000-
SOUTHWEST MINNESOTA

CITY           SKY/WX    TMP DP  RH WIND       PRES   REMARKS
FAIRMONT       CLOUDY    57  52  82 SE15      30.08S
JACKSON        CLOUDY    59  55  88 E15       30.08S
LUVERNE        CLOUDY    68  57  68 SE10      30.02S
MARSHALL       CLOUDY    61  52  72 SE16      30.05S
MONTEVIDEO     CLOUDY    66  54  63 S17       30.05S
REDWOOD FALLS  CLOUDY    60  53  77 SE14G24   30.07F
TRACY          CLOUDY    62  56  81 SE13G18   30.05F
WORTHINGTON    CLOUDY    61  54  77 SE15      30.05F
$$

IAZ001>003-012>014-020>022-031-032-NEZ013-014-SDZ071-060000-
NORTHWEST IOWA

CITY           SKY/WX    TMP DP  RH WIND       PRES   REMARKS
DENISON        PTSUNNY   75  59  57 S10G17    29.99S
ESTHERVILLE    CLOUDY    58  57  97 SE16      30.07S FOG
SIOUX CITY     CLOUDY    76  59  55 S15       29.97F
SPENCER        CLOUDY    63  60  90 E15       30.05S
$$

ABBREVIATIONS USED IN REMARKS
   TC - TEMPERATURE IN CELSIUS
  WCI - WIND CHILL INDEX
   HX - HEAT INDEX
  VSB - VISIBILITY



USA.gov is the U.S. government's official web portal to all federal, state and local government web resources and services.